Location: ??
(31.9467°N, 34.8903°E)
Time: 18:49:20
(UTC+00:00)

GPS 2-04 Rocket1 - Pass Details

Date: 29 October 2020
Orbit: 417 x 546 km, 35.6° (Epoch: 30 November)

Event Time Altitude Azimuth Distance (km) Brightness Sun altitude
Rises 15:38:51 0° 254° (WSW) 2,594 8.5 -10.3°
Reaches altitude 10° 15:41:02 10° 255° (WSW) 1,731 7.0 -10.7°
Maximum altitude 15:45:02 82° 343° (NNW) 535 2.7 -11.6°
Enters shadow 15:48:01 18° 71° (ENE) 1,343 4.2 -12.2°
